Weather in Orosei

Italy     40°22′43″N   9°41′50″E
temp.,
°C
wind,
m/s
gust,
m/s
humid.,
%
clouds,
%
prec.,
mm/h
press.,
hPa
HPBL,
m
12 august, fri
fri1223:00+23wnw33628 0.0 101465
02:00+22wnw22620 0.0 101463
05:00+22wnw22600 0.0 101365
08:00+25wnw225015 0.0 1014131
11:00+30e233972 0.0 10141310
14:00+28ene335372 0.0 1014819
17:00+29ese32501 0.1 10131010
20:00+27sse22570 0.1 1013219
13 august, sat
sat1323:00+24wsw23660 0.0 1013118
02:00+23w22630 0.0 101370
05:00+23w22642 0.0 101269
08:00+24w23620 0.1 1012136
11:00+30ese23410 0.1 10121067
14:00+28e43520 0.1 1011647
17:00+27ene32601 0.6 1011668
20:00+25nne34773 1.6 1011254
14 august, sun
sun1423:00+23nw22830 0.2 1013102
02:00+23nnw2384100 0.2 1012139
05:00+22n2285100 0.0 1011123
08:00+23wsw117813 0.0 1011120
11:00+28se2251100 0.0 1012764
14:00+30se65500 0.0 1010957
17:00+29se44572 0.0 1010861
20:00+27s45672 0.0 1009383
15 august, mon
mon1523:00+25ssw35790 0.0 1009262
02:00+24sw23750 0.0 1009152
05:00+23wsw22704 0.0 100894
08:00+26sw22550 0.0 1008136
11:00+30se33505 0.0 1008775
14:00+30sse445210 0.0 1007770
17:00+31sse575229 0.0 1006751
20:00+28s46724 0.0 1006244
16 august, tue
tue1623:00+26nnw11760 0.0 100749
02:00+25w226799 0.0 100768
05:00+24wnw3383100 0.0 100894
08:00+26w3474100 0.0 1009274
11:00+30ssw3455100 0.0 1010744
14:00+33sse46445 0.0 10081492
17:00+32sse55538 0.0 1009748
20:00+28sse24760 0.0 1009177